Year,Month,Day,Hour,Minute,Value (Times are PST for windspeed in km/hr)
2006,02,01,00,00,11.90
2006,02,01,00,01,10.60
2006,02,01,00,02,10.70
2006,02,01,00,03,21.20
2006,02,01,00,04,10.40
2006,02,01,00,05,10.80
2006,02,01,00,06,17.90
2006,02,01,00,07,16.70
2006,02,01,00,08,14.50
2006,02,01,00,09,10.70
2006,02,01,00,10,16.60
2006,02,01,00,11,19.00
2006,02,01,00,12,14.40
2006,02,01,00,13,13.10
2006,02,01,00,14,9.20
2006,02,01,00,15,9.30
2006,02,01,00,16,16.40
2006,02,01,00,17,17.70
2006,02,01,00,18,17.60
2006,02,01,00,19,12.90
2006,02,01,00,20,7.30
2006,02,01,00,21,19.60
2006,02,01,00,22,16.50
2006,02,01,00,23,19.40
2006,02,01,00,24,18.20
2006,02,01,00,25,19.90
2006,02,01,00,26,20.20
2006,02,01,00,27,16.70
2006,02,01,00,28,20.70
2006,02,01,00,29,13.60
2006,02,01,00,30,10.80
2006,02,01,00,31,16.50
2006,02,01,00,32,15.50
2006,02,01,00,33,8.40
2006,02,01,00,34,10.00
2006,02,01,00,35,18.10
2006,02,01,00,36,10.90
2006,02,01,00,37,20.70
2006,02,01,00,38,18.60
2006,02,01,00,39,15.60
2006,02,01,00,40,14.20
2006,02,01,00,41,18.00
2006,02,01,00,42,19.80
2006,02,01,00,43,15.20
2006,02,01,00,44,11.20
2006,02,01,00,45,19.50
2006,02,01,00,46,16.80
2006,02,01,00,47,13.00
2006,02,01,00,48,27.10
2006,02,01,00,49,18.90
2006,02,01,00,50,20.60
2006,02,01,00,51,9.70
2006,02,01,00,52,16.10
2006,02,01,00,53,25.80
2006,02,01,00,54,22.60
2006,02,01,00,55,14.10
2006,02,01,00,56,24.60
2006,02,01,00,57,20.80
2006,02,01,00,58,13.80
2006,02,01,00,59,15.20
2006,02,01,01,00,15.40
2006,02,01,01,01,15.00
2006,02,01,01,02,21.30
2006,02,01,01,03,19.50
2006,02,01,01,04,14.20
2006,02,01,01,05,17.70
2006,02,01,01,06,17.00
2006,02,01,01,07,18.40
2006,02,01,01,08,18.40
2006,02,01,01,09,13.20
2006,02,01,01,10,11.20
2006,02,01,01,11,14.30
2006,02,01,01,12,9.70
2006,02,01,01,13,18.30
2006,02,01,01,14,18.50
2006,02,01,01,15,14.80
2006,02,01,01,16,22.20
2006,02,01,01,17,31.50
2006,02,01,01,18,28.60
2006,02,01,01,19,24.70
2006,02,01,01,20,21.30
2006,02,01,01,21,19.20
2006,02,01,01,22,16.90
2006,02,01,01,23,13.80
2006,02,01,01,24,15.20
2006,02,01,01,25,26.20
2006,02,01,01,26,17.40
2006,02,01,01,27,10.30
2006,02,01,01,28,8.40
2006,02,01,01,29,15.90
2006,02,01,01,30,17.80
2006,02,01,01,31,19.10
2006,02,01,01,32,16.00
2006,02,01,01,33,6.50
2006,02,01,01,34,6.40
2006,02,01,01,35,19.80
2006,02,01,01,36,25.00
2006,02,01,01,37,15.90
2006,02,01,01,38,36.30
2006,02,01,01,39,17.20
2006,02,01,01,40,14.20
2006,02,01,01,41,16.00
2006,02,01,01,42,14.90
2006,02,01,01,43,16.50
2006,02,01,01,44,19.70
2006,02,01,01,45,20.40
2006,02,01,01,46,17.00
2006,02,01,01,47,16.40
2006,02,01,01,48,11.00
2006,02,01,01,49,20.80
2006,02,01,01,50,20.10
2006,02,01,01,51,19.80
2006,02,01,01,52,16.60
2006,02,01,01,53,21.80
2006,02,01,01,54,24.80
2006,02,01,01,55,19.80
2006,02,01,01,56,22.90
2006,02,01,01,57,16.60
2006,02,01,01,58,23.60
2006,02,01,01,59,19.70
2006,02,01,02,00,15.60
2006,02,01,02,01,19.80
2006,02,01,02,02,13.90
2006,02,01,02,03,19.40
2006,02,01,02,04,20.00
2006,02,01,02,05,24.40
2006,02,01,02,06,19.70
2006,02,01,02,07,21.70
2006,02,01,02,08,15.60
2006,02,01,02,09,18.20
2006,02,01,02,10,17.80
2006,02,01,02,11,19.30
2006,02,01,02,12,15.20
2006,02,01,02,13,14.30
2006,02,01,02,14,9.60
2006,02,01,02,15,12.50
2006,02,01,02,16,13.40
2006,02,01,02,17,16.90
2006,02,01,02,18,14.10
2006,02,01,02,19,14.30
2006,02,01,02,20,8.80
2006,02,01,02,21,19.90
2006,02,01,02,22,27.40
2006,02,01,02,23,20.50
2006,02,01,02,24,13.60
2006,02,01,02,25,13.50
2006,02,01,02,26,15.60
2006,02,01,02,27,19.40
2006,02,01,02,28,25.60
2006,02,01,02,29,16.50
2006,02,01,02,30,21.10
2006,02,01,02,31,24.10
2006,02,01,02,32,20.60
2006,02,01,02,33,13.30
2006,02,01,02,34,19.60
2006,02,01,02,35,15.10
2006,02,01,02,36,22.30
2006,02,01,02,37,21.20
2006,02,01,02,38,11.50
2006,02,01,02,39,17.80
2006,02,01,02,40,18.40
2006,02,01,02,41,11.20
2006,02,01,02,42,21.70
2006,02,01,02,43,29.50
2006,02,01,02,44,12.60
2006,02,01,02,45,9.80
2006,02,01,02,46,11.80
2006,02,01,02,47,13.00
2006,02,01,02,48,17.40
2006,02,01,02,49,9.50
2006,02,01,02,50,6.40
2006,02,01,02,51,10.90
2006,02,01,02,52,13.10
2006,02,01,02,53,13.00
2006,02,01,02,54,15.30
2006,02,01,02,55,21.60
2006,02,01,02,56,16.50
2006,02,01,02,57,19.60
2006,02,01,02,58,16.40
2006,02,01,02,59,29.10
2006,02,01,03,00,12.00
2006,02,01,03,01,7.50
2006,02,01,03,02,11.30
2006,02,01,03,03,12.20
2006,02,01,03,04,11.60
2006,02,01,03,05,9.70
2006,02,01,03,06,14.80
2006,02,01,03,07,14.20
2006,02,01,03,08,8.10
2006,02,01,03,09,12.80
2006,02,01,03,10,14.50
2006,02,01,03,11,16.70
2006,02,01,03,12,20.80
2006,02,01,03,13,18.70
2006,02,01,03,14,16.10
2006,02,01,03,15,13.20
2006,02,01,03,16,7.60
2006,02,01,03,17,8.90
2006,02,01,03,18,9.10
2006,02,01,03,19,12.60
2006,02,01,03,20,11.70
2006,02,01,03,21,13.60
2006,02,01,03,22,7.20
2006,02,01,03,23,7.00
2006,02,01,03,24,7.30
2006,02,01,03,25,7.80
2006,02,01,03,26,8.10
2006,02,01,03,27,9.10
2006,02,01,03,28,7.00
2006,02,01,03,29,8.60
2006,02,01,03,30,4.50
2006,02,01,03,31,1.60
2006,02,01,03,32,12.60
2006,02,01,03,33,9.90
2006,02,01,03,34,14.80
2006,02,01,03,35,19.10
2006,02,01,03,36,15.70
2006,02,01,03,37,7.40
2006,02,01,03,38,9.60
2006,02,01,03,39,11.90
2006,02,01,03,40,17.20
2006,02,01,03,41,13.50
2006,02,01,03,42,14.50
2006,02,01,03,43,21.20
2006,02,01,03,44,18.10
2006,02,01,03,45,14.50
2006,02,01,03,46,18.20
2006,02,01,03,47,15.70
2006,02,01,03,48,13.20
2006,02,01,03,49,10.40
2006,02,01,03,50,11.00
2006,02,01,03,51,15.20
2006,02,01,03,52,11.70
2006,02,01,03,53,4.40
2006,02,01,03,54,4.40
2006,02,01,03,55,9.10
2006,02,01,03,56,11.70
2006,02,01,03,57,15.70
2006,02,01,03,58,5.60
2006,02,01,03,59,13.00
2006,02,01,04,00,8.10
2006,02,01,04,01,16.70
2006,02,01,04,02,17.70
2006,02,01,04,03,8.10
2006,02,01,04,04,6.70
2006,02,01,04,05,9.40
2006,02,01,04,06,7.20
2006,02,01,04,07,13.50
2006,02,01,04,08,11.20
2006,02,01,04,09,13.20
2006,02,01,04,10,11.30
2006,02,01,04,11,9.70
2006,02,01,04,12,13.80
2006,02,01,04,13,12.10
2006,02,01,04,14,13.80
2006,02,01,04,15,12.10
2006,02,01,04,16,6.40
2006,02,01,04,17,13.60
2006,02,01,04,18,15.00
2006,02,01,04,19,15.30
2006,02,01,04,20,8.30
2006,02,01,04,21,15.30
2006,02,01,04,22,12.50
2006,02,01,04,23,12.20
2006,02,01,04,24,8.70
2006,02,01,04,25,14.90
2006,02,01,04,26,17.90
2006,02,01,04,27,16.80
2006,02,01,04,28,21.00
2006,02,01,04,29,27.70
2006,02,01,04,30,16.80
2006,02,01,04,31,19.10
2006,02,01,04,32,13.00
2006,02,01,04,33,25.50
2006,02,01,04,34,21.60
2006,02,01,04,35,22.60
2006,02,01,04,36,22.10
2006,02,01,04,37,19.20
2006,02,01,04,38,24.40
2006,02,01,04,39,13.00
2006,02,01,04,40,17.10
2006,02,01,04,41,27.20
2006,02,01,04,42,27.60
2006,02,01,04,43,25.50
2006,02,01,04,44,27.40
2006,02,01,04,45,16.30
2006,02,01,04,46,16.30
2006,02,01,04,47,12.10
2006,02,01,04,48,14.20
2006,02,01,04,49,14.90
2006,02,01,04,50,21.00
2006,02,01,04,51,15.30
2006,02,01,04,52,19.60
2006,02,01,04,53,23.00
2006,02,01,04,54,22.10
2006,02,01,04,55,27.10
2006,02,01,04,56,21.10
2006,02,01,04,57,19.70
2006,02,01,04,58,22.10
2006,02,01,04,59,27.00
2006,02,01,05,00,25.30
2006,02,01,05,01,14.60
2006,02,01,05,02,22.50
2006,02,01,05,03,15.80
2006,02,01,05,04,20.00
2006,02,01,05,05,18.00
2006,02,01,05,06,15.80
2006,02,01,05,07,21.00
2006,02,01,05,08,16.30
2006,02,01,05,09,16.30
2006,02,01,05,10,8.30
2006,02,01,05,11,10.80
2006,02,01,05,12,19.40
2006,02,01,05,13,19.90
2006,02,01,05,14,16.60
2006,02,01,05,15,20.50
2006,02,01,05,16,16.80
2006,02,01,05,17,24.90
2006,02,01,05,18,22.80
2006,02,01,05,19,20.20
2006,02,01,05,20,14.00
2006,02,01,05,21,16.60
2006,02,01,05,22,14.20
2006,02,01,05,23,21.00
2006,02,01,05,24,17.50
2006,02,01,05,25,24.90
2006,02,01,05,26,26.10
2006,02,01,05,27,28.20
2006,02,01,05,28,28.20
2006,02,01,05,29,37.80
2006,02,01,05,30,30.70
2006,02,01,05,31,27.80
2006,02,01,05,32,21.10
2006,02,01,05,33,29.90
2006,02,01,05,34,33.70
2006,02,01,05,35,29.40
2006,02,01,05,36,24.90
2006,02,01,05,37,30.70
2006,02,01,05,38,30.10
2006,02,01,05,39,20.80
2006,02,01,05,40,19.50
2006,02,01,05,41,24.50
2006,02,01,05,42,32.90
2006,02,01,05,43,22.50
2006,02,01,05,44,19.50
2006,02,01,05,45,20.70
2006,02,01,05,46,17.80
2006,02,01,05,47,26.80
2006,02,01,05,48,25.00
2006,02,01,05,49,23.20
2006,02,01,05,50,19.50
2006,02,01,05,51,25.30
2006,02,01,05,52,20.30
2006,02,01,05,53,25.50
2006,02,01,05,54,20.20
2006,02,01,05,55,19.10
2006,02,01,05,56,15.20
2006,02,01,05,57,25.10
2006,02,01,05,58,17.60
2006,02,01,05,59,17.80
2006,02,01,06,00,17.80
2006,02,01,06,01,20.50
2006,02,01,06,02,26.10
2006,02,01,06,03,25.30
2006,02,01,06,04,17.20
2006,02,01,06,05,20.40
2006,02,01,06,06,21.30
2006,02,01,06,07,21.20
2006,02,01,06,08,22.40
2006,02,01,06,09,17.10
2006,02,01,06,10,20.00
2006,02,01,06,11,20.00
2006,02,01,06,12,21.40
2006,02,01,06,13,18.90
2006,02,01,06,14,22.80
2006,02,01,06,15,24.10
2006,02,01,06,16,23.60
2006,02,01,06,19,21.70
2006,02,01,06,20,17.20
2006,02,01,06,21,26.60
2006,02,01,06,22,21.50
2006,02,01,06,23,19.10
2006,02,01,06,26,20.40
2006,02,01,06,27,31.60
2006,02,01,06,28,27.60
2006,02,01,06,29,15.60
2006,02,01,06,30,26.70
2006,02,01,06,31,37.00
2006,02,01,06,32,29.20
2006,02,01,06,33,21.30
2006,02,01,06,34,22.20
2006,02,01,06,35,22.90
2006,02,01,06,36,20.90
2006,02,01,06,37,22.20
2006,02,01,06,38,25.00
2006,02,01,06,39,23.70
2006,02,01,06,40,15.90
2006,02,01,06,41,24.70
2006,02,01,06,42,15.50
2006,02,01,06,43,15.40
2006,02,01,06,44,15.90
2006,02,01,06,45,13.50
2006,02,01,06,46,20.60
2006,02,01,06,47,12.40
2006,02,01,06,48,19.20
2006,02,01,06,49,20.80
2006,02,01,06,50,18.10
2006,02,01,06,51,21.40
2006,02,01,06,52,23.20
2006,02,01,06,53,19.20
2006,02,01,06,54,18.50
2006,02,01,06,55,18.20
2006,02,01,06,56,27.10
2006,02,01,06,57,24.20
2006,02,01,06,58,19.40
2006,02,01,06,59,22.50
2006,02,01,07,00,21.50
2006,02,01,07,01,14.30
2006,02,01,07,02,10.90
2006,02,01,07,03,17.40
2006,02,01,07,04,18.10
2006,02,01,07,05,18.40
2006,02,01,07,06,22.90
2006,02,01,07,07,15.80
2006,02,01,07,08,13.40
2006,02,01,07,09,18.70
2006,02,01,07,10,20.40
2006,02,01,07,11,13.50
2006,02,01,07,12,14.90
2006,02,01,07,13,19.40
2006,02,01,07,14,22.90
2006,02,01,07,15,20.40
2006,02,01,07,16,12.60
2006,02,01,07,17,15.80
2006,02,01,07,18,15.90
2006,02,01,07,19,15.10
2006,02,01,07,20,12.20
2006,02,01,07,21,16.00
2006,02,01,07,22,12.80
2006,02,01,07,23,15.80
2006,02,01,07,24,10.70
2006,02,01,07,25,16.40
2006,02,01,07,26,18.80
2006,02,01,07,27,19.60
2006,02,01,07,28,17.20
2006,02,01,07,29,14.00
2006,02,01,07,30,16.70
2006,02,01,07,31,15.70
2006,02,01,07,32,11.10
2006,02,01,07,33,15.40
2006,02,01,07,34,17.70
2006,02,01,07,35,14.60
2006,02,01,07,36,11.60
2006,02,01,07,37,14.90
2006,02,01,07,38,13.80
2006,02,01,07,39,14.70
2006,02,01,07,40,11.80
2006,02,01,07,41,13.20
2006,02,01,07,42,13.90
2006,02,01,07,43,11.30
2006,02,01,07,44,12.90
2006,02,01,07,45,10.30
2006,02,01,07,46,10.80
2006,02,01,07,47,14.60
2006,02,01,07,48,13.70
2006,02,01,07,49,8.80
2006,02,01,07,50,8.90
2006,02,01,07,51,8.40
2006,02,01,07,52,11.30
2006,02,01,07,53,9.60
2006,02,01,07,54,14.60
2006,02,01,07,55,10.40
2006,02,01,07,56,15.00
2006,02,01,07,57,13.40
2006,02,01,07,58,19.60
2006,02,01,07,59,17.70
2006,02,01,08,00,8.60
2006,02,01,08,01,11.30
2006,02,01,08,02,12.20
2006,02,01,08,03,15.30
2006,02,01,08,04,14.60
2006,02,01,08,05,10.30
2006,02,01,08,06,5.70
2006,02,01,08,07,13.10
2006,02,01,08,08,7.10
2006,02,01,08,09,8.80
2006,02,01,08,10,9.50
2006,02,01,08,11,9.10
2006,02,01,08,12,8.80
2006,02,01,08,13,5.20
2006,02,01,08,14,9.10
2006,02,01,08,15,9.10
2006,02,01,08,16,9.00
2006,02,01,08,17,6.70
2006,02,01,08,18,11.10
2006,02,01,08,19,11.80
2006,02,01,08,20,11.50
2006,02,01,08,21,14.80
2006,02,01,08,22,9.10
2006,02,01,08,23,8.80
2006,02,01,08,24,12.60
2006,02,01,08,25,12.90
2006,02,01,08,26,9.70
2006,02,01,08,27,12.50
2006,02,01,08,28,12.80
2006,02,01,08,29,13.50
2006,02,01,08,30,15.40
2006,02,01,08,31,8.40
2006,02,01,08,32,9.60
2006,02,01,08,33,7.00
2006,02,01,08,34,4.90
2006,02,01,08,35,10.90
2006,02,01,08,36,13.00
2006,02,01,08,37,7.80
2006,02,01,08,38,10.10
2006,02,01,08,39,10.70
2006,02,01,08,40,11.80
2006,02,01,08,41,17.90
2006,02,01,08,42,16.00
2006,02,01,08,43,16.50
2006,02,01,08,44,11.40
2006,02,01,08,45,8.10
2006,02,01,08,46,11.50
2006,02,01,08,47,9.60
2006,02,01,08,48,14.30
2006,02,01,08,49,23.50
2006,02,01,08,50,13.40
2006,02,01,08,51,12.90
2006,02,01,08,52,15.80
2006,02,01,08,53,16.20
2006,02,01,08,54,11.80
2006,02,01,08,55,12.20
2006,02,01,08,56,9.30
2006,02,01,08,57,9.20
2006,02,01,08,58,5.80
2006,02,01,08,59,7.20
2006,02,01,09,00,11.90
2006,02,01,09,01,10.20
2006,02,01,09,02,11.40
2006,02,01,09,03,11.00
2006,02,01,09,04,3.90
2006,02,01,09,05,6.00
2006,02,01,09,06,13.00
2006,02,01,09,07,7.70
2006,02,01,09,08,7.30
2006,02,01,09,09,6.00
2006,02,01,09,10,7.50
2006,02,01,09,11,8.40
2006,02,01,09,12,3.40
2006,02,01,09,13,5.30
2006,02,01,09,14,8.70
2006,02,01,09,15,14.60
2006,02,01,09,16,6.70
2006,02,01,09,17,5.80
2006,02,01,09,18,6.80
2006,02,01,09,19,4.70
2006,02,01,09,20,5.20
2006,02,01,09,21,7.10
2006,02,01,09,22,14.20
2006,02,01,09,23,7.90
2006,02,01,09,24,4.70
2006,02,01,09,25,7.10
2006,02,01,09,26,7.30
2006,02,01,09,27,5.70
2006,02,01,09,28,5.80
2006,02,01,09,29,5.60
2006,02,01,09,30,6.80
2006,02,01,09,31,6.40
2006,02,01,09,32,8.00
2006,02,01,09,33,5.70
2006,02,01,09,34,8.80
2006,02,01,09,35,13.10
2006,02,01,09,36,8.00
2006,02,01,09,37,7.80
2006,02,01,09,38,9.10
2006,02,01,09,39,7.80
2006,02,01,09,40,9.70
2006,02,01,09,41,5.00
2006,02,01,09,42,5.30
2006,02,01,09,43,7.00
2006,02,01,09,44,10.50
2006,02,01,09,45,10.50
2006,02,01,09,46,7.10
2006,02,01,09,47,7.20
2006,02,01,09,48,5.10
2006,02,01,09,49,3.90
2006,02,01,09,50,3.50
2006,02,01,09,51,11.90
2006,02,01,09,52,14.30
2006,02,01,09,53,11.00
2006,02,01,09,54,9.80
2006,02,01,09,55,7.70
2006,02,01,09,56,7.50
2006,02,01,09,57,10.50
2006,02,01,09,58,8.30
2006,02,01,09,59,6.10
2006,02,01,10,00,6.30
2006,02,01,10,01,14.30
2006,02,01,10,02,15.20
2006,02,01,10,03,10.30
2006,02,01,10,04,12.80
2006,02,01,10,05,12.10
2006,02,01,10,06,14.90
2006,02,01,10,07,4.90
2006,02,01,10,08,3.90
2006,02,01,10,09,10.50
2006,02,01,10,10,12.50
2006,02,01,10,11,9.40
2006,02,01,10,12,7.00
2006,02,01,10,13,7.90
2006,02,01,10,14,14.50
2006,02,01,10,15,13.60
2006,02,01,10,16,18.80
2006,02,01,10,17,9.20
2006,02,01,10,18,13.00
2006,02,01,10,19,13.80
2006,02,01,10,20,11.20
2006,02,01,10,21,14.60
2006,02,01,10,22,8.60
2006,02,01,10,23,13.80
2006,02,01,10,24,10.70
2006,02,01,10,25,7.60
2006,02,01,10,26,15.90
2006,02,01,10,27,14.40
2006,02,01,10,28,9.40
2006,02,01,10,29,15.90
2006,02,01,10,30,11.30
2006,02,01,10,31,10.20
2006,02,01,10,32,10.30
2006,02,01,10,33,7.50
2006,02,01,10,34,9.30
2006,02,01,10,35,10.20
2006,02,01,10,36,9.20
2006,02,01,10,44,10.20
2006,02,01,10,47,16.40
2006,02,01,10,50,8.90
2006,02,01,10,51,11.50
2006,02,01,10,52,8.10
2006,02,01,10,53,12.20
2006,02,01,10,54,8.40
2006,02,01,10,55,11.90
2006,02,01,10,56,10.50
2006,02,01,10,57,8.60
2006,02,01,10,58,10.60
2006,02,01,10,59,9.80
2006,02,01,11,00,12.20
2006,02,01,11,01,8.60
2006,02,01,11,02,12.80
2006,02,01,11,03,10.20
2006,02,01,11,04,12.20
2006,02,01,11,05,11.90
2006,02,01,11,06,11.70
2006,02,01,11,07,8.80
2006,02,01,11,08,6.40
2006,02,01,11,09,13.30
2006,02,01,11,10,13.70
2006,02,01,11,11,10.40
2006,02,01,11,12,11.90
2006,02,01,11,13,11.60
2006,02,01,11,14,10.40
2006,02,01,11,15,13.80
2006,02,01,11,16,11.20
2006,02,01,11,17,8.80
2006,02,01,11,18,6.10
2006,02,01,11,19,7.30
2006,02,01,11,20,8.70
2006,02,01,11,21,12.50
2006,02,01,11,22,13.00
2006,02,01,11,23,9.10
2006,02,01,11,24,10.20
2006,02,01,11,25,14.20
2006,02,01,11,26,8.10
2006,02,01,11,27,12.30
2006,02,01,11,28,12.10
2006,02,01,11,29,7.90
2006,02,01,11,30,15.00
2006,02,01,11,31,12.10
2006,02,01,11,32,11.20
2006,02,01,11,33,9.40
2006,02,01,11,34,8.60
2006,02,01,11,35,8.20
2006,02,01,11,36,7.20
2006,02,01,11,37,11.00
2006,02,01,11,38,10.30
2006,02,01,11,39,9.60
2006,02,01,11,40,7.80
2006,02,01,11,41,13.10
2006,02,01,11,42,11.70
2006,02,01,11,43,8.50
2006,02,01,11,44,11.40
2006,02,01,11,45,8.80
2006,02,01,11,46,9.10
2006,02,01,11,47,12.60
2006,02,01,11,48,6.20
2006,02,01,11,49,6.60
2006,02,01,11,50,7.20
2006,02,01,11,51,8.20
2006,02,01,11,52,15.90
2006,02,01,11,53,11.30
2006,02,01,11,54,8.90
2006,02,01,11,55,10.30
2006,02,01,11,56,13.00
2006,02,01,11,57,12.50
2006,02,01,11,58,16.00
2006,02,01,11,59,12.70
2006,02,01,12,00,16.60
2006,02,01,12,01,9.90
2006,02,01,12,02,8.30
2006,02,01,12,03,10.80
2006,02,01,12,04,9.70
2006,02,01,12,05,8.50
2006,02,01,12,06,7.50
2006,02,01,12,07,8.70
2006,02,01,12,08,7.10
2006,02,01,12,09,9.70
2006,02,01,12,10,10.00
2006,02,01,12,11,8.40
2006,02,01,12,12,8.10
2006,02,01,12,13,10.90
2006,02,01,12,14,8.40
2006,02,01,12,15,7.70
2006,02,01,12,16,8.60
2006,02,01,12,17,6.70
2006,02,01,12,18,9.60
2006,02,01,12,19,7.30
2006,02,01,12,20,6.90
2006,02,01,12,21,13.70
2006,02,01,12,22,10.00
2006,02,01,12,23,8.50
2006,02,01,12,24,8.10
2006,02,01,12,25,10.90
2006,02,01,12,26,9.10
2006,02,01,12,27,8.10
2006,02,01,12,28,8.40
2006,02,01,12,29,7.50
2006,02,01,12,30,5.20
2006,02,01,12,31,6.50
2006,02,01,12,32,9.40
2006,02,01,12,33,3.10
2006,02,01,12,34,6.50
2006,02,01,12,35,6.80
2006,02,01,12,36,10.10
2006,02,01,12,37,11.70
2006,02,01,12,38,10.30
2006,02,01,12,39,8.20
2006,02,01,12,40,7.90
2006,02,01,12,41,6.50
2006,02,01,12,42,3.00
2006,02,01,12,43,5.70
2006,02,01,12,44,6.80
2006,02,01,12,45,5.00
2006,02,01,12,46,2.10
2006,02,01,12,47,6.50
2006,02,01,12,48,10.80
2006,02,01,12,49,7.00
2006,02,01,12,50,2.50
2006,02,01,12,51,4.90
2006,02,01,12,52,6.20
2006,02,01,12,53,6.20
2006,02,01,12,54,7.60
2006,02,01,12,55,4.30
2006,02,01,12,56,7.30
2006,02,01,12,57,7.00
2006,02,01,12,58,3.50
2006,02,01,12,59,7.10
2006,02,01,13,00,4.70
2006,02,01,13,01,4.00
2006,02,01,13,02,3.60
2006,02,01,13,03,4.20
2006,02,01,13,04,4.00
2006,02,01,13,05,2.80
2006,02,01,13,06,3.80
2006,02,01,13,07,4.80
2006,02,01,13,08,5.10
2006,02,01,13,09,2.50
2006,02,01,13,10,4.20
2006,02,01,13,11,6.00
2006,02,01,13,12,10.30
2006,02,01,13,13,7.80
2006,02,01,13,14,8.10
2006,02,01,13,15,7.20
2006,02,01,13,16,5.30
2006,02,01,13,17,5.10
2006,02,01,13,18,3.80
2006,02,01,13,19,6.50
2006,02,01,13,20,7.10
2006,02,01,13,21,4.30
2006,02,01,13,22,5.20
2006,02,01,13,23,5.60
2006,02,01,13,24,5.00
2006,02,01,13,25,5.60
2006,02,01,13,26,4.50
2006,02,01,13,27,4.30
2006,02,01,13,28,5.30
2006,02,01,13,29,6.20
2006,02,01,13,30,7.40
2006,02,01,13,31,6.70
2006,02,01,13,32,8.50
2006,02,01,13,33,7.50
2006,02,01,13,34,6.70
2006,02,01,13,35,7.80
2006,02,01,13,36,4.80
2006,02,01,13,37,6.80
2006,02,01,13,38,7.80
2006,02,01,13,39,7.30
2006,02,01,13,40,10.10
2006,02,01,13,41,10.10
2006,02,01,13,42,7.80
2006,02,01,13,43,7.30
2006,02,01,13,44,6.20
2006,02,01,13,45,6.40
2006,02,01,13,46,11.30
2006,02,01,13,47,11.50
2006,02,01,13,48,7.30
2006,02,01,13,49,6.20
2006,02,01,13,50,5.70
2006,02,01,13,51,5.30
2006,02,01,13,52,6.40
2006,02,01,13,53,4.10
2006,02,01,13,54,3.50
2006,02,01,13,55,8.40
2006,02,01,13,56,6.40
2006,02,01,13,57,3.40
2006,02,01,13,58,7.00
2006,02,01,13,59,6.00
2006,02,01,14,00,6.70
2006,02,01,14,01,7.90
2006,02,01,14,02,8.00
2006,02,01,14,03,10.30
2006,02,01,14,04,15.20
2006,02,01,14,05,7.60
2006,02,01,14,06,6.80
2006,02,01,14,07,8.10
2006,02,01,14,19,8.20
2006,02,01,14,20,10.40
2006,02,01,14,21,8.20
2006,02,01,14,22,14.00
2006,02,01,14,23,10.40
2006,02,01,14,24,7.40
2006,02,01,14,25,8.30
2006,02,01,14,26,2.70
2006,02,01,14,27,5.10
2006,02,01,14,28,7.00
2006,02,01,14,29,5.10
2006,02,01,14,30,2.90
2006,02,01,14,31,4.80
2006,02,01,14,32,7.40
2006,02,01,14,33,8.50
2006,02,01,14,34,5.50
2006,02,01,14,35,6.40
2006,02,01,14,36,7.70
2006,02,01,14,37,6.10
2006,02,01,14,38,6.90
2006,02,01,14,39,6.70
2006,02,01,14,40,11.30
2006,02,01,14,41,9.60
2006,02,01,14,42,7.50
2006,02,01,14,43,8.90
2006,02,01,14,44,9.80
2006,02,01,14,45,10.10
2006,02,01,14,46,9.50
2006,02,01,14,47,15.90
2006,02,01,14,48,16.90
2006,02,01,14,49,12.50
2006,02,01,14,50,16.20
2006,02,01,14,51,15.40
2006,02,01,14,52,12.80
2006,02,01,14,53,13.00
2006,02,01,14,54,13.20
2006,02,01,14,55,16.70
2006,02,01,14,56,10.00
2006,02,01,14,57,7.20
2006,02,01,14,58,8.10
2006,02,01,14,59,9.60
2006,02,01,15,00,10.90
2006,02,01,15,01,8.10
2006,02,01,15,02,5.40
2006,02,01,15,03,8.50
2006,02,01,15,04,5.50
2006,02,01,15,05,9.40
2006,02,01,15,06,5.30
2006,02,01,15,07,4.30
2006,02,01,15,08,4.70
2006,02,01,15,09,4.50
2006,02,01,15,10,5.40
2006,02,01,15,11,1.40
2006,02,01,15,12,7.20
2006,02,01,15,13,6.40
2006,02,01,15,14,7.00
2006,02,01,15,15,5.20
2006,02,01,15,16,6.70
2006,02,01,15,17,6.50
2006,02,01,15,18,5.50
2006,02,01,15,19,6.40
2006,02,01,15,20,9.70
2006,02,01,15,21,7.50
2006,02,01,15,22,5.20
2006,02,01,15,23,5.10
2006,02,01,15,24,4.80
2006,02,01,15,25,5.00
2006,02,01,15,26,1.90
2006,02,01,15,27,5.30
2006,02,01,15,28,3.30
2006,02,01,15,29,3.50
2006,02,01,15,30,2.80
2006,02,01,15,31,2.80
2006,02,01,15,32,2.30
2006,02,01,15,33,4.10
2006,02,01,15,34,3.60
2006,02,01,15,35,5.80
2006,02,01,15,36,4.50
2006,02,01,15,37,5.00
2006,02,01,15,38,4.30
2006,02,01,15,39,5.40
2006,02,01,15,40,3.90
2006,02,01,15,41,4.20
2006,02,01,15,42,6.00
2006,02,01,15,43,5.80
2006,02,01,15,44,2.70
2006,02,01,15,45,2.50
2006,02,01,15,46,3.00
2006,02,01,15,47,2.80
2006,02,01,15,48,4.70
2006,02,01,15,49,2.80
2006,02,01,15,50,3.60
2006,02,01,15,51,3.10
2006,02,01,15,52,4.30
2006,02,01,15,53,2.80
2006,02,01,15,54,3.10
2006,02,01,15,55,2.90
2006,02,01,15,56,4.80
2006,02,01,15,57,4.70
2006,02,01,15,58,0.60
2006,02,01,15,59,0.70
2006,02,01,16,00,0.60
2006,02,01,16,01,1.60
2006,02,01,16,02,0.30
2006,02,01,16,03,1.40
2006,02,01,16,04,3.10
2006,02,01,16,05,5.10
2006,02,01,16,06,4.30
2006,02,01,16,07,7.50
2006,02,01,16,08,7.10
2006,02,01,16,09,8.40
2006,02,01,16,10,8.10
2006,02,01,16,11,8.10
2006,02,01,16,12,6.80
2006,02,01,16,13,6.80
2006,02,01,16,14,7.60
2006,02,01,16,15,7.90
2006,02,01,16,16,9.10
2006,02,01,16,17,7.80
2006,02,01,16,18,8.70
2006,02,01,16,19,9.20
2006,02,01,16,20,5.80
2006,02,01,16,21,3.30
2006,02,01,16,22,4.10
2006,02,01,16,23,8.60
2006,02,01,16,24,7.80
2006,02,01,16,25,8.30
2006,02,01,16,26,8.90
2006,02,01,16,27,8.60
2006,02,01,16,28,9.20
2006,02,01,16,29,7.10
2006,02,01,16,30,7.40
2006,02,01,16,31,11.10
2006,02,01,16,32,10.20
2006,02,01,16,33,9.50
2006,02,01,16,34,13.00
2006,02,01,16,35,11.70
2006,02,01,16,36,14.40
2006,02,01,16,37,14.70
2006,02,01,16,38,13.00
2006,02,01,16,39,12.90
2006,02,01,16,40,10.60
2006,02,01,16,41,7.70
2006,02,01,16,42,9.50
2006,02,01,16,43,10.90
2006,02,01,16,44,8.10
2006,02,01,16,45,9.40
2006,02,01,16,46,10.30
2006,02,01,16,47,11.80
2006,02,01,16,48,13.70
2006,02,01,16,49,9.50
2006,02,01,16,50,10.80
2006,02,01,16,51,10.00
2006,02,01,16,52,7.20
2006,02,01,16,53,10.80
2006,02,01,16,54,8.30
2006,02,01,16,55,7.70
2006,02,01,16,56,8.10
2006,02,01,16,57,8.20
2006,02,01,16,58,9.30
2006,02,01,16,59,8.90
2006,02,01,17,00,7.80
2006,02,01,17,01,9.50
2006,02,01,17,02,6.30
2006,02,01,17,03,7.10
2006,02,01,17,04,7.10
2006,02,01,17,05,9.50
2006,02,01,17,06,12.30
2006,02,01,17,07,9.00
2006,02,01,17,08,11.30
2006,02,01,17,09,12.10
2006,02,01,17,10,8.50
2006,02,01,17,11,8.60
2006,02,01,17,12,7.40
2006,02,01,17,13,6.80
2006,02,01,17,14,5.60
2006,02,01,17,15,5.70
2006,02,01,17,16,8.60
2006,02,01,17,17,6.40
2006,02,01,17,18,5.50
2006,02,01,17,19,4.70
2006,02,01,17,20,5.30
2006,02,01,17,21,8.10
2006,02,01,17,22,5.90
2006,02,01,17,23,4.50
2006,02,01,17,24,4.40
2006,02,01,17,25,5.50
2006,02,01,17,26,4.70
2006,02,01,17,27,5.00
2006,02,01,17,28,5.40
2006,02,01,17,29,5.80
2006,02,01,17,30,5.60
2006,02,01,17,31,8.20
2006,02,01,17,32,12.60
2006,02,01,17,33,6.20
2006,02,01,17,34,8.30
2006,02,01,17,35,11.30
2006,02,01,17,36,7.50
2006,02,01,17,37,8.20
2006,02,01,17,38,7.30
2006,02,01,17,39,7.00
2006,02,01,17,40,5.40
2006,02,01,17,41,6.40
2006,02,01,17,42,6.40
2006,02,01,17,43,5.60
2006,02,01,17,44,5.30
2006,02,01,17,45,5.30
2006,02,01,17,46,6.40
2006,02,01,17,47,6.50
2006,02,01,17,48,6.60
2006,02,01,17,49,3.70
2006,02,01,17,50,3.40
2006,02,01,17,51,6.30
2006,02,01,17,52,8.80
2006,02,01,17,53,9.20
2006,02,01,17,54,8.40
2006,02,01,17,55,7.20
2006,02,01,17,56,7.40
2006,02,01,17,57,8.50
2006,02,01,17,58,8.90
2006,02,01,17,59,10.60
2006,02,01,18,00,8.00
2006,02,01,18,01,6.60
2006,02,01,18,02,8.90
2006,02,01,18,03,8.90
2006,02,01,18,04,9.20
2006,02,01,18,05,6.40